This is the latest recevied weather packets stored in our database for station/object KI7JYE. If no packets are shown the sender has not sent any weather packets the latest 10 day(s).
| Time | Temp. | Humidity | Pressure | Rain* | Wind** | Luminosity | Snow |
|---|---|---|---|---|---|---|---|
| 1777429169 | 13.89° C | 59% | 1021.3 hPa | 0 mm | - | 34 W/m² | - |
| 1777428866 | 13.89° C | 58% | 1021.4 hPa | 0 mm | - | 39 W/m² | - |
| 1777428562 | 13.89° C | 57% | 1021.4 hPa | 0 mm | - | 42 W/m² | - |
| 1777428258 | 14.44° C | 57% | 1021.3 hPa | 0 mm | - | 45 W/m² | - |
| 1777427953 | 14.44° C | 57% | 1021.3 hPa | 0 mm | - | 48 W/m² | - |
| 1777427650 | 14.44° C | 57% | 1021.5 hPa | 0 mm | - | 52 W/m² | - |
| 1777427347 | 14.44° C | 58% | 1021.5 hPa | 0 mm | - | 56 W/m² | - |
| 1777427044 | 14.44° C | 57% | 1021.6 hPa | 0 mm | - | 62 W/m² | - |
| 1777426741 | 15° C | 57% | 1021.3 hPa | 0 mm | - | 92 W/m² | - |
| 1777426438 | 15° C | 58% | 1021.7 hPa | 0 mm | - | 110 W/m² | - |
| 1777426134 | 14.44° C | 56% | 1021.7 hPa | 0 mm | - | 88 W/m² | - |
| 1777425834 | 14.44° C | 56% | 1021.7 hPa | 0 mm | - | 81 W/m² | - |
| 1777425530 | 15° C | 55% | 1021.4 hPa | 0 mm | - | 78 W/m² | - |
| 1777425224 | 15° C | 55% | 1021.5 hPa | 0 mm | - | 78 W/m² | - |
| 1777424922 | 15° C | 55% | 1021.5 hPa | 0 mm | - | 85 W/m² | - |
| 1777424618 | 15.56° C | 54% | 1021.4 hPa | 0 mm | - | 101 W/m² | - |
| 1777424313 | 15.56° C | 53% | 1021.4 hPa | 0 mm | - | 120 W/m² | - |
| 1777424009 | 15.56° C | 53% | 1021.3 hPa | 0 mm | - | 139 W/m² | - |
| 1777423706 | 16.11° C | 53% | 1021.3 hPa | 0 mm | - | 154 W/m² | - |
| 1777423402 | 15.56° C | 52% | 1021.6 hPa | 0 mm | - | 166 W/m² | - |
| 1777423096 | 15.56° C | 51% | 1021.4 hPa | 0 mm | - | 169 W/m² | - |
| 1777422792 | 15.56° C | 51% | 1021.5 hPa | 0 mm | - | 171 W/m² | - |
| 1777422487 | 15.56° C | 51% | 1021.6 hPa | 0 mm | - | 202 W/m² | - |
| 1777422182 | 15.56° C | 52% | 1021.4 hPa | 0 mm | - | 157 W/m² | - |
| 1777421882 | 15.56° C | 53% | 1021.5 hPa | 0 mm | - | 144 W/m² | - |
* Rain latest hour (hover to see other rain measurements)
** Current wind speed in m/s (hover to see current wind gust speed)